User: anonymous   Login
Location: Unspecified
(0.0000°N, 0.0000°E)
Time: 21:09:47
(UTC+00:00)
Language:

Transit 4B - Orbit

View from above orbital plane
View from above orbital plane
View from above satellite
View from above satellite

Ground track
Ground track

The orbit data is extracted from the following two-line orbital elements,

1   202U 61031A   24110.06645904  .00000167  00000-0  17542-3 0  9993
2   202  32.4404 354.5491 0101111 340.6506  19.0294 13.63657729113282
Epoch (UTC): 19 April 2024 01:35:42
Eccentricity: 0.0101111
inclination: 32.4404°
perigee height: 947 km
apogee height: 1097 km
right ascension of ascending node: 354.5491°
argument of perigee: 340.6506°
revolutions per day: 13.63657729
mean anomaly at epoch: 19.0294°
orbit number at epoch: 11328

The dashed part of the orbit path shows where the satellite is in the earth's shadow,  

DLR